Orbital Elements at Epoch 2459200.5 (2020-Dec-17.0) TDB
Reference: JPL 15 (heliocentric ecliptic J2000)
Element | Value | Uncertainty (1-sigma) | Units |
e | .03825813342357544 | 5.4652e-08 | |
a | 2.762437658087829 | 1.9534e-08 | au |
q | 2.656751949590396 | 1.4788e-07 | au |
i | 3.493191909948308 | 6.2792e-06 | deg |
node | 1.808351988468786 | 7.0619e-05 | deg |
peri | 221.3266420978117 | 0.0001015 | deg |
M | 187.1479971928354 | 7.5898e-05 | deg |
tp | 2460005.709834904652 (2023-Mar-02.20983490) | 0.00035577 | TDB |
period | 1677.015804607498 4.59 | 1.7788e-05 4.87e-08 | d yr |
n | .2146670287846555 | 2.277e-09 | deg/d |
Q | 2.868123366585263 | 2.0282e-08 | au |
|
| | Orbit Determination Parameters
Additional Information
|